Regional Weather Roundup
Issued by NWS Sterling, VA

Home | Current Version | Previous Version | Text Only | Print | Product List | Glossary Off
Versions: 1 2 3 4 5 6 7 8 9 10 11 12 13 14 15 16 17 18 19 20 21 22 23 24 25 26 27 28 29 30 31 32 33 34 35 36 37 38 39 40 41 42 43 44 45 46 47 48 49 50

819
ASUS41 KLWX 100410
RWRLWX

REGIONAL WEATHER ROUNDUP
NATIONAL WEATHER SERVICE BALTIMORE MD/WASHINGTON DC
1100 PM EST TUE FEB 09 2016

Note: "FAIR" indicates few or no clouds below 12,000 feet
with no significant weather and/or obstructions to visibility.
 TC=TEMPERATURE CELSIUS

 * =Non NWS site. Station does not report precipitation (e.g. rain,
    snow, etc.), thunder, or fog.

DCZ001-MDZ009-015-VAZ040>042-051-053>054-100500-
WASHINGTON METRO

CITY           SKY/WX    TMP DP  RH WIND       PRES   REMARKS
WASHINGTON NAT CLOUDY    33  19  56 NW13G21   29.70S WCI  24
DULLES         CLOUDY    31  18  58 NW13      29.69R WCI  21
ANDREWS AFB    CLOUDY    32  20  60 W10       29.67S WCI  24
FT BELVOIR     CLOUDY    33  19  57 NW8       29.70S WCI  25
QUANTICO       CLOUDY    35  20  54 N6        29.72S
COLLEGE PARK*  FAIR      32  21  64 W5        29.69R
LEESBURG*      CLOUDY    32  25  74 NW18G25   29.70R WCI  20
MANASSAS*      CLOUDY    34  19  55 NW15G22   29.70S WCI  24
GAITHERSBURG*  CLOUDY    28  19  69 NW17G24   29.70S WCI  16

$$

MDZ006>007-011-014-100500-
BALTIMORE METRO

CITY           SKY/WX    TMP DP  RH WIND       PRES   REMARKS
BWI AIRPORT    CLOUDY    32  23  69 W15G24    29.66R WCI  22
MD SCIENCE CTR   N/A     33  22  63 MISG      29.67R
MARTIN STATE   CLOUDY    34  30  86 W14G20    29.68R WCI  24
ANNAPOLIS      CLOUDY    33  25  72 W7        29.68R
FORT MEADE*    MOCLDY    32  25  74 W8        29.70S WCI  25

$$

MDZ012-015-019>023-100500-
MARYLAND EASTERN SHORE

CITY           SKY/WX    TMP DP  RH WIND       PRES   REMARKS
OCEAN CITY     CLOUDY    35  32  88 NW6       29.66R
SALISBURY      CLOUDY    35  29  78 W12       29.66R WCI  27
BAY BRIDGE AP*   N/A     34  27  75 W7        29.68R
CAMBRIDGE*     CLOUDY    34  27  75 NW7       29.67S
EASTON*        CLOUDY    35  28  75 NW10      29.71R WCI  27

$$

MDZ017>025-100500-
SOUTHERN MARYLAND

CITY           SKY/WX    TMP DP  RH WIND       PRES   REMARKS
PATUXENT RIVER CLOUDY    35  25  66 NW13      29.68S WCI  26
ST INIGOES     CLOUDY    36  29  75 W10       29.68R WCI  28
LEONARDTOWN*   CLOUDY    34  23  64 NW6       29.70S

$$

MDZ003>005-100500-
NORTH CENTRAL MARYLAND

CITY           SKY/WX    TMP DP  RH WIND       PRES   REMARKS
FREDERICK*     CLOUDY    30  27  86 W10G25    29.72S WCI  21
HAGERSTOWN APT LGT SNOW  27  21  78 SW9       29.67S WCI  18
WESTMINSTER*   LGT SNOW  27  25  93 W9        29.64R WCI  17

$$

MDZ501>502-100500-
WESTERN MARYLAND

CITY           SKY/WX    TMP DP  RH WIND       PRES   REMARKS
OAKLAND*       CLOUDY    16  14  93 W15G23    29.59S FOG     WCI   1
CUMBERLAND*    CLOUDY    30  18  59 W10G18    29.74R WCI  21

$$

VAZ025>031-100500-
SHENANDOAH VALLEY

CITY           SKY/WX    TMP DP  RH WIND       PRES   REMARKS
WINCHESTER*    CLOUDY    30  19  64 W7        29.70R
FRONT ROYAL*   CLOUDY    30  16  55 W6        29.69S
LURAY*         CLOUDY    30  14  51 W6        29.71R
NEW MARKET*    CLOUDY    28  13  52 W6        29.71S
STAUNTON*      CLOUDY    31  15  52 W5        29.73R
WAYNESBORO*    CLOUDY    26  10  49 W3        29.70R

$$

WVZ021-048>050-054>055-100500-
EASTERN WEST VIRGINIA PANHANDLE

CITY           SKY/WX    TMP DP  RH WIND       PRES   REMARKS
MARTINSBURG    CLOUDY    28  18  66 W8G18     29.69S WCI  20
PETERSBURG*    CLOUDY    28  12  52 CALM      29.73F

$$

VAZ036>039-050-100500-
CENTRAL FOOTHILLS

CITY           SKY/WX    TMP DP  RH WIND       PRES   REMARKS
CHARLOTTESVILL CLOUDY    32  13  45 VRB3      29.70R
CULPEPER*      CLOUDY    32  16  50 NW8       29.71R WCI  25
ORANGE*        CLOUDY    34  21  60 W5        29.71S
GORDONSVILLE*  CLOUDY    33  18  53 NW5       29.69S
WARRENTON*     CLOUDY    33  22  62 NW8G17    29.69R WCI  26

$$

VAZ055>057-100500-
NORTH AND CENTRAL PIEDMONT

CITY           SKY/WX    TMP DP  RH WIND       PRES   REMARKS
FREDERICKSBRG* CLOUDY    33  33 100 CALM      29.70R
STAFFORD*      CLOUDY    32  22  66 NW8       29.74S WCI  25

$$

NCZ024-NYZ072-PAZ021-071-VAZ022-071-100500-
OTHER REGIONAL OBSERVATIONS

CITY           SKY/WX    TMP DP  RH WIND       PRES   REMARKS
NEW YORK CITY  CLOUDY    34  26  72 CALM      29.62F
PHILADELPHIA   LGT SNOW  34  31  88 CALM      29.62F FOG
PITTSBURGH     FLURRIES  25  19  78 SW8       29.68S WCI  16
ROANOKE        MOCLDY    25  10  53 W15G26    29.80S WCI  13
RICHMOND       CLOUDY    33  16  49 W13       29.72R WCI  24
RALEIGH        PTCLDY    30  12  47 W8G20     29.82S WCI  22

$$

ANZ530>537-100500-
MARINE OBSERVATIONS

STATION/POSITION TIME  TEMP    WIND        PRES
                       AIR SEA DIR/SP/G
                 (UTC) (F)     (DEG/KT/KT) (MB)
THOMAS PT LIGHT  0300   34 39  300/ 14/ 15 1005.3
BALT KEY BRIDGE  0300   34     280/ 14/ 16 1004.3R
COVE POINT       0300   35     320/ 11/ 16 1005.7R
LEWISETTA        0300   35 41  270/  6/  7 1005.0R
SOLOMONS ISLAND  0300   36 41  300/  7/ 11   N/A
PINEY POINT      0300          310/ 11/ 13   N/A

$$





USA.gov is the U.S. government's official web portal to all federal, state and local government web resources and services.